Tracking 25656 objects as of 21-May-2022
HD Live streaming from Space Station
objects crossing your sky now

COSMOS 1275 DEB

Track COSMOS 1275 DEB now!
10-day predictions


NORAD ID: 14440
Int'l Code: 1981-053JK
Perigee: 947.6 km
Apogee: 1,124.2 km
Inclination: 82.9 °
Period: 105.7 minutes
Semi major axis: 7406 km
RCS: 0.017 m2 (small)
Launch date: June 4, 1981
Source: Commonwealth of Independent States (former USSR) (CIS)
Launch site: PLESETSK MISSILE AND SPACE COMPLEX (PKMTR)

Note: This is SATELLITE DEBRIS
aabbcc
Your satellite tracking list
Your tracking list is empty




NASA's NSSDC Master Catalog

Two Line Element Set (TLE):
1 14440U 81053JG  22140.17876182  .00000353  00000-0  41923-3 0  9992
2 14440  82.9248 200.8771 0119236 159.8626 257.1753 13.61911069 10718
Source of the keplerian elements: AFSPC